Погода Кемерово

Погода Кемерово : погода сейчас, прогноз погоды и архив. Всё, что Вы хотите узнать о погоде Кемерово!

Поиск расширенной информации на нашем сайте:

Другие новости

Новости СМИ2

Главная страница сайта

Новости сайта

03.07.2017

Напоминаем, что на нашем специализированном сайте Метеоцентр.Азия вы можете получить высокодетализированные автоматические прогнозы погоды по пунктам России, СНГ и мира в авиационном формате (включающие направление и скорость ветра, видимость, явления погоды, количество и форму облачности, нижнюю и верхнюю границу облачности).


Погода Кемерово - сегодня

Время (UTC), дата Ветер
(°,м/с) 
Видим.   Явления Облачность Т
(°С)
Тd
(°С)
f(%) Тe
(°С)
Pmin
(гПа)
dP
(гПа)
Po
(мм)
O2
(г/м3)
Тmin Tmax R s Состояние
почвы
09 17.09.17 210 (ЮЗ) 20000 м    8/5 600 м верхняя 
[Sc|Ci fib]
+15.7 +8.2 61 +16  1016.9  -1.1  749  284           
12 17.09.17 160 (Ю) 20000 м    8/3 600 м верхняя 
[Sc|Ci fib]
+14.8 +9.4 70 +15  1014.8  -2.1  748  284    +16.9  0.0     
15 17.09.17 160 (Ю) 20000 м    8/3 600 м верхняя 
[Sc|Ci fib]
+11.5 +9.2 86 +13  1013  -2  746  287           
18 17.09.17 160 (Ю) 20000 м    8/5 600 м верхняя 
[Sc|Ci fib]
+11.5 +9.3 86 +11  1010.2  -2.7  744  286           
21 17.09.17 160 (Ю) 20000 м  {ливн. осадки}  8/5 600 м верхняя 
[Sc|Ci fib]
+12.5 +9.8 84 +14  1007.6  -2.5  743  284           
00 18.09.17 160 (Ю) 20000 м  {ливн. осадки}  10/10 600 м кучево-дожд. 
[Cb cap]
+13.2 +10.5 84 +16  1006.9  -0.7  742  283  +11.1    0.3    влажная 
03 18.09.17 210 (ЮЗ) 20000 м    10/10 600 м 
[Sc]
+15.3 +11.2 77 +19  1007.4  0.7  743  281           
06 18.09.17 210 (ЮЗ) 20000 м    9/9 600 м 
[Sc]
+18 +11.9 67 +23  1007.6  0.4  743  279           
09 18.09.17 230 (ЮЗ) 20000 м    10/10 600 м 
[Sc]
+18.5 +12 66 +24  1007.5  -0.1  743  278           
12 18.09.17 210 (ЮЗ) 20000 м    8/3 600 м верхняя 
[Sc|Ci fib]
+15.8 +11.1 74 +20  1007.9  0.2  743  281    +19.7       
15 18.09.17 070 (В) 20000 м    8/5 600 м верхняя 
[Sc|Ci fib]
+11.8 +10.4 91 +15  1007.9  -0.2  743  285           
18 18.09.17 130 (ЮВ) 20000 м    6/3 600 м верхняя 
[Sc|Ci fib]
+11.3 +10.6 95 +14  1006.9  -1  742  285           
21 18.09.17 тихо ()   4000 м  дымка  3/0 600 м верхняя 
[Ci fib]
+7.8 +7.2 96 +8  1005.8  -1.4  741  289           
00 19.09.17 270 (З) 0500 м  туман  8/8 600 м 
[Sc]
+9.2 +8.8 97 +10  1006.6  742  288  +7.5        влажная 
03 19.09.17 270 (З) 20000 м  {туман}  8/3 600 м средняя, верхняя 
[Sc|Ac trans|Ci fib]
+12.1 +7.6 74 +12  1008.3  1.8  743  285           
06 19.09.17 250 (З) 20000 м  {туман}  10/8 600 м верхняя 
[Cu Sc|Ci fib]
+15.4 +7.7 60 +17  1008.7  0.6  743  282           
09 19.09.17 300 (СЗ) 10 км  слаб. ливневой дождь, в посл. час гроза  10/10 600 м кучево-дожд. 
[Cb cap]
+11.1 +8 81 +11  1009.3  0.3  744  287           
12 19.09.17 280 (З) 10 км  в посл. час ливневой дождь{гроза}  10/8 600 м кучево-дожд., верхняя 
[Cb cap|Ci fib]
+10.8 +8.9 88 +11  1010.3  744  287    +15.7     
15 19.09.17 290 (З) 20000 м  {ливн. осадки}  10/8 600 м верхняя 
[Sc|Ci fib]
+9.4 +8.2 92 +9  1012.2  1.8  746  289           
18 19.09.17 290 (З) 10 км  слаб. ливневой дождь  10/10 300 м кучево-дожд. 
[Cb cap]
+8.3 +7.3 93 +8  1013.6  1.2  747  291           
21 19.09.17 290 (З) 20000 м  {ливн. осадки}  10/10 600 м 
[Sc]
+8.3 +6.8 90 +8  1015  1.4  748  291           
00 20.09.17 280 (З) 20000 м  {ливн. осадки}  10/10 600 м 
[Sc]
+7.8 +6.4 91 +7  1017.1  2.1  749  292  +7.8      влажная 
03 20.09.17 280 (З) 20000 м    10/10 600 м 
[Sc]
+9.2 +6.6 84 +9  1018.9  1.8  751  292           
06 20.09.17 290 (З) 3{11}  10 км  слаб. ливневой дождь  9/8 600 м кучево-дожд., верхняя 
[Cb cap|Ci fib]
+9.1 +6.7 85 +9  1019.5  0.6  751  292           
09 20.09.17 320 (СЗ) 10 км  слаб. ливневой дождь  9/9 600 м кучево-дожд. 
[Cb cap]
+10.6 +7.9 83 +11  1020  0.6  752  290           
Время (UTC), дата Ветер
(°,м/с) 
Видим.   Явления Облачность Т
(°С)
Тd
(°С)
f(%) Тe
(°С)
Pmin
(гПа)
dP
(гПа)
Po
(мм)
O2
(г/м3)
Тmin Tmax R s Состояние
почвы

Для получения пояснительной информации подведите курсор к названию столбца.

ПОГОДА Кемерово - архив

Всё, что Вы хотите узнать о погоде Кемерово - удобно и подробно!

Выберите нужную дату (начиная с 1 января 2015* года) и нажмите кнопку "Найти".
Будут отображены архивные сводки погоды по пункту Кемерово, начиная с указанной даты.


Отображать данные в формате CSV (для использования в таблицах Excel)


Внимание! Наш архив погоды предназначен исключительно для личного некоммерческого использования в познавательных целях. Если Вам необходимы официальные справки о состоянии погоды (для производственных, юридических, коммерческих и т.п. целей), обращайтесь в органы Росгидромета.

*Примечание: данная дата относится к архиву по метеостанциям СССР (Россия, СНГ, Балтия).
Архив по метеостанциям Зарубежной Европы и Азии (кроме Китая) хранится 10 дней, по другим регионам земного шара (Китай, Африка, Америка, Австралия, Океания) - 1 день.

Кемерово - район местоположения метеостанции


Название, широта, долгота, высота метеостанции:
Кемерово (город) 55.2°ш. 86.1°д. 260 м над ур. моря [Российская Федерация]

Дополнительная информация

В oтличие oт бoльшинства пoгoдных сайтoв мы публикуем пoдрoбную метеoинфoрмацию в детальнoм прoфессиoнальнoм фoрмате.

Характеристики температуры и влажнoсти вoздуха измеряются на высoте 2 м в тени вдали oт зданий и деревьев.
Скoрoсть ветра измеряется на высoте 10 м (на урoвне рoста челoвека скoрoсть ветра ниже в 1.5-2 раза). Если метеoстанция нахoдится в гoрoде или в лесу, тo скoрoсть ветра занижена на 2-4 м/с пo сравнению с oткрытым местoм. Скoрoсть ветра над акватoриями крупных рек и oзёр, а также на вершинах хoлмoв на 2-5 м/с выше, чем в oбычных услoвиях.
Атмoсфернoе давление в разных тoчках местнoсти мoжет значительнo oтличаться oт давления на метеoстанции, в зависимoсти oт услoвий рельефа (при пoдъёме на 10 м давление пoнижается примернo на 1 мм рт.ст.).